| time (UTC) | temp C | wind direction | speed KPH | gust KPH | rain 1hr cm | rain 24hr cm | rain mn cm | humidity % | barometer mb |
| 20260508100125 | 8 | 249 | 0.0 | 0.0 | 0.00 | 0.00 | 0.00 | 98 | 1016.2 |
| 20260508095621 | 8 | 249 | 0.0 | 0.0 | 0.00 | 0.00 | 0.00 | 98 | 1016.1 |
| 20260508095118 | 8 | 249 | 0.0 | 0.0 | 0.00 | 0.00 | 0.00 | 98 | 1016.2 |
| 20260508094615 | 8 | 249 | 0.0 | 0.0 | 0.00 | 0.00 | 0.00 | 97 | 1016.4 |
| 20260508094112 | 8 | 249 | 0.0 | 0.0 | 0.00 | 0.00 | 0.00 | 97 | 1015.9 |
| 20260508093609 | 8 | 249 | 0.0 | 0.0 | 0.00 | 0.00 | 0.00 | 97 | 1016.3 |
| 20260508093107 | 8 | 249 | 0.0 | 0.0 | 0.00 | 0.00 | 0.00 | 97 | 1016.3 |
| 20260508092604 | 9 | 249 | 0.0 | 0.0 | 0.00 | 0.00 | 0.00 | 97 | 1015.9 |
| 20260508092103 | 9 | 249 | 0.0 | 0.0 | 0.00 | 0.00 | 0.00 | 97 | 1016.2 |
| 20260508091559 | 9 | 249 | 0.0 | 0.0 | 0.00 | 0.00 | 0.00 | 97 | 1016.0 |
| 20260508091056 | 9 | 249 | 0.0 | 0.0 | 0.00 | 0.00 | 0.00 | 97 | 1015.9 |
| 20260508090554 | 9 | 249 | 0.0 | 0.0 | 0.00 | 0.00 | 0.00 | 97 | 1015.8 |
| 20260508090050 | 10 | 249 | 0.0 | 0.0 | 0.00 | 0.00 | 0.00 | 97 | 1015.8 |
| 20260508085547 | 10 | 249 | 0.0 | 0.0 | 0.00 | 0.00 | 0.00 | 97 | 1015.6 |
| 20260508085045 | 10 | 249 | 0.0 | 0.0 | 0.00 | 0.00 | 0.00 | 97 | 1015.8 |
| 20260508084541 | 10 | 249 | 0.0 | 0.0 | 0.00 | 0.00 | 0.00 | 97 | 1015.3 |
| 20260508084038 | 10 | 249 | 0.0 | 0.0 | 0.00 | 0.00 | 0.00 | 97 | 1015.5 |
| 20260508083536 | 10 | 249 | 0.0 | 0.0 | 0.00 | 0.00 | 0.00 | 97 | 1015.7 |
| 20260508083032 | 10 | 249 | 1.6 | 1.6 | 0.00 | 0.00 | 0.00 | 97 | 1015.6 |
| 20260508082528 | 10 | 249 | 0.0 | 0.0 | 0.00 | 0.00 | 0.00 | 97 | 1015.5 |
| 20260508082026 | 10 | 249 | 0.0 | 0.0 | 0.00 | 0.00 | 0.00 | 97 | 1015.4 |
| 20260508081523 | 10 | 249 | 0.0 | 0.0 | 0.00 | 0.00 | 0.00 | 96 | 1015.5 |
| 20260508081019 | 10 | 249 | 0.0 | 0.0 | 0.00 | 0.00 | 0.00 | 96 | 1015.4 |
| 20260508080517 | 10 | 249 | 0.0 | 0.0 | 0.00 | 0.00 | 0.00 | 96 | 1015.2 |
| 20260508080014 | 10 | 249 | 0.0 | 0.0 | 0.00 | 0.00 | 0.00 | 96 | 1015.2 |
| 20260508075511 | 10 | 249 | 0.0 | 0.0 | 0.00 | 0.00 | 0.00 | 96 | 1015.4 |
| 20260508075008 | 10 | 249 | 0.0 | 0.0 | 0.00 | 0.00 | 0.00 | 96 | 1015.1 |
| 20260508074506 | 10 | 249 | 0.0 | 0.0 | 0.00 | 0.00 | 0.00 | 96 | 1015.2 |
| 20260508074002 | 11 | 249 | 0.0 | 0.0 | 0.00 | 0.00 | 0.00 | 95 | 1015.1 |
| 20260508073500 | 11 | 249 | 0.0 | 0.0 | 0.00 | 0.00 | 0.00 | 95 | 1015.2 |
| 20260508072957 | 11 | 249 | 0.0 | 0.0 | 0.00 | 0.00 | 0.00 | 95 | 1015.0 |
| 20260508072453 | 11 | 249 | 0.0 | 0.0 | 0.00 | 0.00 | 0.00 | 95 | 1015.0 |
| 20260508071950 | 11 | 249 | 0.0 | 1.6 | 0.00 | 0.00 | 0.00 | 95 | 1015.2 |
| 20260508071448 | 11 | 249 | 0.0 | 0.0 | 0.00 | 0.00 | 0.00 | 94 | 1015.1 |
| 20260508070945 | 11 | 249 | 0.0 | 0.0 | 0.00 | 0.00 | 0.00 | 94 | 1015.3 |
| 20260508070443 | 11 | 249 | 1.6 | 1.6 | 0.00 | 0.00 | 0.00 | 94 | 1015.2 |
| 20260508065941 | 11 | 239 | 1.6 | 4.8 | 0.00 | 0.00 | 0.00 | 93 | 1015.0 |
| 20260508065439 | 11 | 264 | 3.2 | 4.8 | 0.00 | 0.00 | 0.00 | 93 | 1015.1 |
| 20260508064937 | 11 | 236 | 1.6 | 3.2 | 0.00 | 0.00 | 0.00 | 93 | 1015.2 |
| 20260508064434 | 11 | 225 | 0.0 | 1.6 | 0.00 | 0.00 | 0.00 | 93 | 1015.0 |
| 20260508063931 | 11 | 224 | 3.2 | 3.2 | 0.00 | 0.00 | 0.00 | 93 | 1015.3 |
| 20260508063429 | 12 | 248 | 3.2 | 4.8 | 0.00 | 0.00 | 0.00 | 93 | 1015.1 |
| 20260508062926 | 12 | 255 | 1.6 | 3.2 | 0.00 | 0.00 | 0.00 | 94 | 1015.1 |
| 20260508062424 | 12 | 249 | 1.6 | 1.6 | 0.00 | 0.00 | 0.00 | 94 | 1015.1 |
| 20260508061921 | 12 | 247 | 1.6 | 1.6 | 0.00 | 0.00 | 0.00 | 94 | 1014.9 |
| 20260508061418 | 12 | 200 | 1.6 | 3.2 | 0.00 | 0.00 | 0.00 | 94 | 1015.1 |
| 20260508060914 | 12 | 244 | 3.2 | 3.2 | 0.00 | 0.00 | 0.00 | 94 | 1015.1 |
| 20260508060412 | 12 | 240 | 0.0 | 1.6 | 0.00 | 0.00 | 0.00 | 94 | 1014.7 |
| 20260508055907 | 12 | 246 | 1.6 | 3.2 | 0.00 | 0.00 | 0.00 | 93 | 1015.0 |
| 20260508055404 | 12 | 253 | 3.2 | 3.2 | 0.00 | 0.00 | 0.00 | 94 | 1014.8 |
| 20260508054901 | 12 | 246 | 3.2 | 3.2 | 0.00 | 0.00 | 0.00 | 94 | 1014.8 |
| 20260508054358 | 12 | 253 | 3.2 | 3.2 | 0.00 | 0.00 | 0.00 | 95 | 1014.9 |
| 20260508053855 | 12 | 248 | 1.6 | 1.6 | 0.00 | 0.00 | 0.00 | 95 | 1015.0 |
| 20260508053352 | 12 | 248 | 3.2 | 3.2 | 0.00 | 0.00 | 0.00 | 95 | 1015.0 |
| 20260508052850 | 12 | 252 | 0.0 | 1.6 | 0.00 | 0.00 | 0.00 | 95 | 1014.8 |
| 20260508052347 | 12 | 252 | 0.0 | 0.0 | 0.00 | 0.00 | 0.00 | 95 | 1014.9 |
| 20260508051843 | 12 | 252 | 1.6 | 1.6 | 0.00 | 0.00 | 0.00 | 95 | 1014.9 |
| 20260508051338 | 12 | 252 | 0.0 | 0.0 | 0.00 | 0.00 | 0.00 | 95 | 1014.5 |
| 20260508050835 | 12 | 252 | 0.0 | 3.2 | 0.00 | 0.00 | 0.00 | 95 | 1014.8 |
| 20260508050333 | 12 | 237 | 3.2 | 3.2 | 0.00 | 0.00 | 0.00 | 95 | 1014.7 |
| 20260508045828 | 12 | 237 | 0.0 | 0.0 | 0.00 | 0.00 | 0.00 | 95 | 1014.8 |
| 20260508045326 | 12 | 237 | 0.0 | 0.0 | 0.00 | 0.00 | 0.00 | 95 | 1014.7 |
| 20260508044823 | 12 | 237 | 0.0 | 0.0 | 0.00 | 0.00 | 0.00 | 95 | 1014.9 |
| 20260508044319 | 12 | 237 | 0.0 | 0.0 | 0.00 | 0.00 | 0.00 | 95 | 1014.6 |
| 20260508043816 | 12 | 241 | 1.6 | 3.2 | 0.00 | 0.00 | 0.00 | 95 | 1014.6 |
| 20260508043313 | 12 | 245 | 0.0 | 0.0 | 0.00 | 0.00 | 0.00 | 95 | 1014.5 |
| 20260508042809 | 12 | 244 | 0.0 | 1.6 | 0.00 | 0.00 | 0.00 | 95 | 1014.8 |
| 20260508042308 | 12 | 238 | 1.6 | 1.6 | 0.00 | 0.00 | 0.00 | 95 | 1014.5 |
| 20260508041804 | 12 | 238 | 0.0 | 0.0 | 0.00 | 0.00 | 0.00 | 95 | 1014.6 |
| 20260508041300 | 12 | 238 | 0.0 | 1.6 | 0.00 | 0.00 | 0.00 | 95 | 1014.6 |
| 20260508040757 | 12 | 239 | 0.0 | 0.0 | 0.00 | 0.00 | 0.00 | 95 | 1014.3 |
| 20260508040255 | 12 | 239 | 0.0 | 1.6 | 0.00 | 0.00 | 0.00 | 95 | 1014.1 |
| 20260508035751 | 12 | 239 | 3.2 | 3.2 | 0.00 | 2.41 | 2.41 | 95 | 1014.2 |
| 20260508035249 | 12 | 226 | 1.6 | 1.6 | 0.00 | 2.41 | 2.41 | 95 | 1014.0 |
| 20260508034745 | 12 | 83 | 0.0 | 0.0 | 0.00 | 2.41 | 2.41 | 95 | 1013.7 |
| 20260508034243 | 12 | 24 | 0.0 | 0.0 | 0.00 | 2.41 | 2.41 | 95 | 1013.8 |
| 20260508033740 | 12 | 24 | 0.0 | 0.0 | 0.00 | 2.41 | 2.41 | 95 | 1014.0 |
| 20260508033238 | 12 | 24 | 0.0 | 0.0 | 0.00 | 2.41 | 2.41 | 95 | 1013.9 |
| 20260508032735 | 12 | 217 | 0.0 | 0.0 | 0.00 | 2.41 | 2.41 | 95 | 1013.9 |
| 20260508032232 | 12 | 218 | 0.0 | 0.0 | 0.00 | 2.41 | 2.41 | 95 | 1014.1 |
| 20260508031729 | 12 | 217 | 0.0 | 0.0 | 0.00 | 2.41 | 2.41 | 95 | 1013.8 |
| 20260508031225 | 12 | 217 | 1.6 | 0.0 | 0.00 | 2.41 | 2.41 | 95 | 1013.8 |
| 20260508030722 | 12 | 143 | 0.0 | 0.0 | 0.00 | 2.41 | 2.41 | 95 | 1013.8 |
| 20260508030219 | 12 | 142 | 1.6 | 1.6 | 0.00 | 2.41 | 2.41 | 95 | 1013.4 |
| 20260508025715 | 12 | 231 | 0.0 | 0.0 | 0.00 | 2.41 | 2.41 | 95 | 1013.5 |
| 20260508025213 | 12 | 231 | 0.0 | 0.0 | 0.00 | 2.41 | 2.41 | 95 | 1013.8 |
| 20260508024709 | 12 | 231 | 1.6 | 1.6 | 0.00 | 2.41 | 2.41 | 95 | 1013.8 |
| 20260508024206 | 12 | 229 | 1.6 | 1.6 | 0.00 | 2.41 | 2.41 | 95 | 1013.7 |
| 20260508023702 | 12 | 229 | 0.0 | 1.6 | 0.00 | 2.41 | 2.41 | 95 | 1013.7 |
| 20260508023200 | 12 | 228 | 0.0 | 1.6 | 0.00 | 2.41 | 2.41 | 95 | 1013.6 |
| 20260508022655 | 12 | 212 | 0.0 | 3.2 | 0.00 | 2.41 | 2.41 | 95 | 1013.5 |
| 20260508022153 | 12 | 139 | 0.0 | 3.2 | 0.00 | 2.41 | 2.41 | 95 | 1013.3 |
| 20260508021649 | 12 | 233 | 0.0 | 1.6 | 0.00 | 2.41 | 2.41 | 95 | 1013.4 |
| 20260508021144 | 12 | 84 | 0.0 | 1.6 | 0.00 | 2.41 | 2.41 | 95 | 1013.0 |
| 20260508020642 | 12 | 159 | 1.6 | 1.6 | 0.00 | 2.41 | 2.41 | 95 | 1013.0 |
| 20260508020140 | 12 | 148 | 0.0 | 1.6 | 0.00 | 2.41 | 2.41 | 95 | 1013.0 |
| 20260508015637 | 12 | 97 | 0.0 | 0.0 | 0.00 | 2.41 | 2.41 | 95 | 1013.0 |
| 20260508015134 | 12 | 200 | 0.0 | 3.2 | 0.00 | 2.41 | 2.41 | 95 | 1012.9 |
| 20260508014630 | 12 | 55 | 0.0 | 1.6 | 0.00 | 2.41 | 2.41 | 95 | 1012.9 |
| 20260508014126 | 12 | 132 | 3.2 | 3.2 | 0.00 | 2.41 | 2.41 | 95 | 1012.8 |
| 20260508013623 | 12 | 229 | 0.0 | 4.8 | 0.00 | 2.41 | 2.41 | 94 | 1013.0 |
| 20260508013119 | 12 | 138 | 0.0 | 0.0 | 0.00 | 2.41 | 2.41 | 94 | 1012.3 |
| 20260508012617 | 12 | 142 | 0.0 | 1.6 | 0.18 | 2.41 | 2.41 | 94 | 1012.3 |
| 20260508012114 | 12 | 216 | 1.6 | 1.6 | 0.18 | 2.41 | 2.41 | 94 | 1012.4 |
| 20260508011613 | 12 | 224 | 3.2 | 3.2 | 0.00 | 2.39 | 2.39 | 93 | 1012.6 |
| 20260508011109 | 12 | 69 | 0.0 | 0.0 | 0.00 | 2.39 | 2.39 | 93 | 1012.3 |
| 20260508010606 | 12 | 86 | 4.8 | 9.7 | 0.00 | 2.39 | 2.39 | 93 | 1012.6 |
| 20260508010105 | 12 | 27 | 1.6 | 4.8 | 0.00 | 2.39 | 2.39 | 93 | 1012.3 |
| 20260508005600 | 12 | 96 | 6.4 | 6.4 | 0.00 | 2.39 | 2.39 | 93 | 1012.3 |
| 20260508005057 | 12 | 92 | 6.4 | 6.4 | 0.00 | 2.39 | 2.39 | 93 | 1012.6 |
| 20260508004553 | 12 | 162 | 3.2 | 3.2 | 0.00 | 2.39 | 2.39 | 93 | 1012.7 |
| 20260508004050 | 12 | 125 | 1.6 | 4.8 | 0.00 | 2.39 | 2.39 | 93 | 1012.5 |
| 20260508003546 | 12 | 289 | 1.6 | 6.4 | 0.00 | 2.39 | 2.39 | 93 | 1012.5 |
| 20260508003044 | 12 | 149 | 0.0 | 4.8 | 0.00 | 2.39 | 2.39 | 93 | 1012.1 |
| 20260508002540 | 12 | 199 | 0.0 | 3.2 | 0.00 | 2.39 | 2.39 | 92 | 1012.0 |
| 20260508002037 | 12 | 153 | 4.8 | 9.7 | 0.00 | 2.39 | 2.39 | 92 | 1011.9 |
| 20260508001533 | 12 | 176 | 3.2 | 3.2 | 0.00 | 2.39 | 2.39 | 92 | 1011.6 |
| 20260508001029 | 12 | 123 | 1.6 | 6.4 | 0.00 | 2.39 | 2.39 | 92 | 1011.6 |
| 20260508000525 | 12 | 131 | 4.8 | 6.4 | 0.00 | 2.39 | 2.39 | 91 | 1011.6 |
| 20260508000023 | 12 | 160 | 3.2 | 4.8 | 0.00 | 2.39 | 2.39 | 92 | 1011.3 |
| 20260507235519 | 12 | 81 | 3.2 | 4.8 | 0.00 | 2.39 | 2.39 | 91 | 1011.7 |
| 20260507235017 | 12 | 221 | 3.2 | 11.3 | 0.00 | 2.39 | 2.39 | 92 | 1011.5 |
| 20260507234513 | 12 | 67 | 0.0 | 4.8 | 0.00 | 2.39 | 2.39 | 91 | 1011.4 |
| 20260507234010 | 12 | 197 | 4.8 | 9.7 | 0.00 | 2.39 | 2.39 | 91 | 1011.5 |
| 20260507233506 | 12 | 223 | 1.6 | 6.4 | 0.00 | 2.39 | 2.39 | 91 | 1011.4 |
| 20260507233005 | 12 | 232 | 3.2 | 4.8 | 0.00 | 2.39 | 2.39 | 92 | 1011.5 |
| 20260507232501 | 12 | 230 | 1.6 | 9.7 | 0.00 | 2.39 | 2.39 | 91 | 1011.5 |
| 20260507231959 | 12 | 141 | 3.2 | 4.8 | 0.00 | 2.39 | 2.39 | 91 | 1011.4 |
| 20260507231454 | 12 | 78 | 3.2 | 6.4 | 0.00 | 2.39 | 2.39 | 91 | 1011.1 |
| 20260507230952 | 12 | 119 | 3.2 | 3.2 | 0.00 | 2.39 | 2.39 | 92 | 1010.8 |
| 20260507230449 | 13 | 144 | 3.2 | 3.2 | 0.00 | 2.39 | 2.39 | 91 | 1010.8 |
| 20260507225944 | 13 | 65 | 1.6 | 3.2 | 0.00 | 2.39 | 2.39 | 91 | 1010.9 |
| 20260507225440 | 13 | 218 | 1.6 | 4.8 | 0.00 | 2.39 | 2.39 | 91 | 1011.0 |
| 20260507224937 | 13 | 32 | 4.8 | 6.4 | 0.00 | 2.39 | 2.39 | 90 | 1011.1 |
| 20260507224432 | 13 | 196 | 11.3 | 14.5 | 0.00 | 2.39 | 2.39 | 90 | 1010.9 |
| 20260507223930 | 13 | 213 | 1.6 | 4.8 | 0.00 | 2.39 | 2.39 | 90 | 1010.8 |
| 20260507223425 | 13 | 181 | 0.0 | 6.4 | 0.00 | 2.39 | 2.39 | 91 | 1011.2 |
| 20260507222922 | 13 | 135 | 1.6 | 4.8 | 0.00 | 2.39 | 2.39 | 90 | 1010.9 |
| 20260507222419 | 13 | 155 | 1.6 | 3.2 | 0.00 | 2.39 | 2.39 | 90 | 1010.8 |
| 20260507221916 | 13 | 177 | 4.8 | 12.9 | 0.00 | 2.39 | 2.39 | 90 | 1010.8 |
| 20260507221413 | 13 | 214 | 0.0 | 4.8 | 0.00 | 2.39 | 2.39 | 90 | 1010.9 |
| 20260507220908 | 13 | 174 | 4.8 | 9.7 | 0.00 | 2.39 | 2.39 | 90 | 1010.7 |
| 20260507220407 | 13 | 200 | 0.0 | 3.2 | 0.00 | 2.39 | 2.39 | 90 | 1010.5 |
| 20260507215903 | 13 | 134 | 0.0 | 9.7 | 0.00 | 2.39 | 2.39 | 90 | 1010.6 |
| 20260507215400 | 13 | 162 | 3.2 | 4.8 | 0.00 | 2.39 | 2.39 | 90 | 1010.5 |
| 20260507214857 | 13 | 241 | 3.2 | 11.3 | 0.00 | 2.39 | 2.39 | 90 | 1010.2 |
| 20260507214354 | 13 | 221 | 1.6 | 4.8 | 0.00 | 2.39 | 2.39 | 91 | 1010.2 |
| 20260507213850 | 13 | 234 | 3.2 | 6.4 | 0.00 | 2.39 | 2.39 | 91 | 1010.1 |
| 20260507213347 | 14 | 221 | 3.2 | 4.8 | 0.00 | 2.39 | 2.39 | 90 | 1010.1 |
| 20260507212844 | 14 | 210 | 1.6 | 9.7 | 0.00 | 2.39 | 2.39 | 90 | 1010.1 |
| 20260507212339 | 14 | 252 | 8.0 | 9.7 | 0.00 | 2.39 | 2.39 | 90 | 1009.8 |
| 20260507211836 | 15 | 231 | 4.8 | 6.4 | 0.00 | 2.39 | 2.39 | 89 | 1009.8 |
| 20260507211333 | 15 | 213 | 1.6 | 4.8 | 0.00 | 2.39 | 2.39 | 90 | 1009.5 |
| 20260507210830 | 15 | 199 | 6.4 | 11.3 | 0.00 | 2.39 | 2.39 | 89 | 1009.5 |
| 20260507210327 | 15 | 175 | 3.2 | 12.9 | 0.00 | 2.39 | 2.39 | 89 | 1009.5 |
| 20260507205823 | 15 | 104 | 1.6 | 22.5 | 0.00 | 2.39 | 2.39 | 90 | 1009.3 |
| 20260507205320 | 15 | 149 | 4.8 | 9.7 | 0.00 | 2.39 | 2.39 | 92 | 1009.3 |
| 20260507204816 | 15 | 238 | 3.2 | 14.5 | 0.00 | 2.39 | 2.39 | 92 | 1009.4 |
| 20260507204314 | 15 | 201 | 1.6 | 9.7 | 0.00 | 2.39 | 2.39 | 92 | 1009.3 |
| 20260507203812 | 15 | 278 | 9.7 | 11.3 | 0.00 | 2.39 | 2.39 | 91 | 1009.1 |
| 20260507203309 | 15 | 237 | 3.2 | 4.8 | 0.00 | 2.39 | 2.39 | 92 | 1009.1 |
| 20260507202805 | 15 | 205 | 1.6 | 9.7 | 0.00 | 2.39 | 2.39 | 92 | 1008.8 |
| 20260507202301 | 15 | 175 | 1.6 | 12.9 | 0.00 | 2.39 | 2.39 | 91 | 1009.1 |
| 20260507201756 | 15 | 171 | 6.4 | 11.3 | 0.00 | 2.39 | 2.39 | 91 | 1008.9 |
| 20260507201253 | 16 | 164 | 1.6 | 9.7 | 0.00 | 2.39 | 2.39 | 91 | 1008.9 |
| 20260507200750 | 17 | 255 | 4.8 | 20.9 | 0.00 | 2.39 | 2.39 | 90 | 1008.7 |
| 20260507200245 | 17 | 239 | 11.3 | 17.7 | 0.00 | 2.39 | 2.39 | 90 | 1008.7 |
| 20260507195742 | 18 | 95 | 1.6 | 12.9 | 0.00 | 2.39 | 2.39 | 89 | 1008.6 |
| 20260507195239 | 21 | 286 | 6.4 | 14.5 | 0.00 | 2.39 | 2.39 | 83 | 1008.4 |
| 20260507194737 | 23 | 234 | 11.3 | 16.1 | 0.00 | 2.39 | 2.39 | 81 | 1008.2 |
| 20260507194232 | 23 | 281 | 3.2 | 4.8 | 0.00 | 2.39 | 2.39 | 81 | 1007.8 |
| 20260507193729 | 23 | 289 | 8.0 | 11.3 | 0.00 | 2.39 | 2.39 | 78 | 1007.5 |
| 20260507193226 | 23 | 317 | 0.0 | 1.6 | 0.00 | 2.39 | 2.39 | 82 | 1007.6 |
| 20260507192722 | 23 | 274 | 3.2 | 11.3 | 0.00 | 2.39 | 2.39 | 81 | 1007.6 |
| 20260507192219 | 23 | 285 | 4.8 | 4.8 | 0.00 | 2.39 | 2.39 | 84 | 1008.3 |
| 20260507191715 | 23 | 276 | 4.8 | 9.7 | 0.00 | 2.39 | 2.39 | 85 | 1008.4 |
| 20260507191212 | 22 | 277 | 1.6 | 6.4 | 0.00 | 2.39 | 2.39 | 86 | 1008.3 |
| 20260507190709 | 22 | 233 | 1.6 | 9.7 | 0.00 | 2.39 | 2.39 | 87 | 1008.4 |
| 20260507190208 | 22 | 265 | 1.6 | 3.2 | 0.00 | 2.39 | 2.39 | 88 | 1008.5 |
| 20260507185706 | 22 | 214 | 0.0 | 4.8 | 0.00 | 2.39 | 2.39 | 90 | 1008.7 |
| 20260507185202 | 22 | 281 | 9.7 | 11.3 | 0.00 | 2.39 | 2.39 | 89 | 1008.7 |
| 20260507184700 | 21 | 278 | 3.2 | 6.4 | 0.00 | 2.39 | 2.39 | 91 | 1009.0 |
| 20260507184157 | 21 | 275 | 3.2 | 3.2 | 0.00 | 2.39 | 2.39 | 92 | 1008.9 |
| 20260507183653 | 21 | 284 | 3.2 | 4.8 | 0.00 | 2.39 | 2.39 | 91 | 1008.4 |
| 20260507183151 | 21 | 117 | 1.6 | 6.4 | 0.00 | 2.39 | 2.39 | 91 | 1008.7 |
| 20260507182648 | 21 | 249 | 0.0 | 1.6 | 0.00 | 2.39 | 2.39 | 91 | 1008.7 |
| 20260507182143 | 21 | 234 | 1.6 | 3.2 | 0.00 | 2.39 | 2.39 | 91 | 1008.6 |
| 20260507181640 | 21 | 220 | 0.0 | 3.2 | 0.00 | 2.39 | 2.39 | 92 | 1008.4 |
| 20260507181136 | 21 | 279 | 1.6 | 3.2 | 0.00 | 2.39 | 2.39 | 91 | 1008.5 |
| 20260507180633 | 21 | 105 | 4.8 | 6.4 | 0.00 | 2.39 | 2.39 | 91 | 1008.3 |
| 20260507180130 | 22 | 258 | 0.0 | 3.2 | 0.00 | 2.39 | 2.39 | 91 | 1008.7 |
| 20260507175626 | 22 | 240 | 1.6 | 9.7 | 0.00 | 2.39 | 2.39 | 91 | 1008.6 |
| 20260507175123 | 21 | 213 | 6.4 | 6.4 | 0.00 | 2.39 | 2.39 | 93 | 1009.0 |
| 20260507174620 | 21 | 61 | 1.6 | 3.2 | 0.13 | 2.39 | 2.39 | 94 | 1009.2 |
| 20260507174118 | 21 | 260 | 4.8 | 4.8 | 0.30 | 2.39 | 2.39 | 93 | 1009.2 |
| 20260507173615 | 21 | 157 | 1.6 | 3.2 | 0.18 | 2.36 | 2.36 | 94 | 1009.2 |
| 20260507173112 | 20 | 138 | 3.2 | 3.2 | 0.13 | 2.34 | 2.34 | 94 | 1009.1 |
| 20260507172608 | 20 | 109 | 1.6 | 1.6 | 0.30 | 2.34 | 2.34 | 94 | 1009.4 |
| 20260507172106 | 20 | 167 | 1.6 | 1.6 | 0.18 | 2.31 | 2.31 | 94 | 1009.8 |
| 20260507171600 | 20 | 217 | 0.0 | 3.2 | 0.00 | 2.29 | 2.29 | 95 | 1009.9 |
| 20260507171058 | 20 | 302 | 0.0 | 1.6 | 0.13 | 2.29 | 2.29 | 95 | 1010.0 |
| 20260507170555 | 20 | 298 | 1.6 | 1.6 | 0.30 | 2.29 | 2.29 | 95 | 1010.1 |
| 20260507170051 | 20 | 263 | 1.6 | 1.6 | 0.18 | 2.26 | 2.26 | 95 | 1010.5 |
| 20260507165547 | 20 | 104 | 0.0 | 1.6 | 0.18 | 2.24 | 2.24 | 94 | 1010.3 |
| 20260507165044 | 20 | 178 | 0.0 | 1.6 | 0.30 | 2.24 | 2.24 | 94 | 1010.4 |
| 20260507164540 | 20 | 219 | 0.0 | 0.0 | 0.30 | 2.21 | 2.21 | 94 | 1010.3 |
| 20260507164038 | 20 | 293 | 0.0 | 0.0 | 0.30 | 2.18 | 2.18 | 94 | 1010.1 |
| 20260507163535 | 21 | 311 | 3.2 | 3.2 | 0.18 | 2.13 | 2.13 | 94 | 1010.3 |
| 20260507163033 | 21 | 211 | 0.0 | 3.2 | 0.48 | 2.13 | 2.13 | 93 | 1010.2 |
| 20260507162532 | 21 | 241 | 1.6 | 3.2 | 0.43 | 2.11 | 2.11 | 93 | 1010.2 |
| 20260507162030 | 21 | 219 | 0.0 | 1.6 | 0.13 | 2.06 | 2.06 | 93 | 1010.4 |
| 20260507161526 | 21 | 260 | 0.0 | 4.8 | 0.18 | 2.03 | 2.03 | 93 | 1010.5 |
| 20260507161023 | 21 | 324 | 1.6 | 1.6 | 0.18 | 2.03 | 2.03 | 94 | 1010.4 |
| 20260507160519 | 21 | 52 | 0.0 | 3.2 | 0.00 | 2.01 | 2.01 | 93 | 1010.6 |
| 20260507160016 | 21 | 276 | 1.6 | 1.6 | 0.00 | 2.01 | 2.01 | 94 | 1010.5 |
| 20260507155511 | 21 | 108 | 1.6 | 3.2 | 0.13 | 2.01 | 2.01 | 93 | 1010.6 |
| 20260507155008 | 20 | 274 | 0.0 | 3.2 | 0.18 | 1.98 | 1.98 | 94 | 1010.5 |
| 20260507154505 | 20 | 326 | 0.0 | 1.6 | 0.48 | 1.98 | 1.98 | 94 | 1010.8 |
| 20260507154002 | 20 | 311 | 0.0 | 1.6 | 0.79 | 1.96 | 1.96 | 93 | 1010.8 |
| 20260507153459 | 21 | 286 | 0.0 | 0.0 | 0.89 | 1.91 | 1.91 | 92 | 1011.0 |
| 20260507152955 | 21 | 143 | 1.6 | 1.6 | 0.48 | 1.80 | 1.80 | 91 | 1011.1 |
| 20260507152451 | 21 | 35 | 0.0 | 3.2 | 0.18 | 1.75 | 1.75 | 91 | 1011.3 |
| 20260507151947 | 21 | 133 | 1.6 | 1.6 | 0.00 | 1.73 | 1.73 | 91 | 1011.1 |
| 20260507151444 | 21 | 263 | 3.2 | 6.4 | 0.13 | 1.73 | 1.73 | 90 | 1011.1 |
| 20260507150941 | 21 | 248 | 4.8 | 6.4 | 0.13 | 1.73 | 1.73 | 90 | 1011.3 |
| 20260507150437 | 21 | 262 | 1.6 | 1.6 | 0.00 | 1.70 | 1.70 | 90 | 1011.2 |
| 20260507145934 | 21 | 270 | 4.8 | 6.4 | 0.00 | 1.70 | 1.70 | 89 | 1011.3 |
| 20260507145429 | 21 | 245 | 6.4 | 6.4 | 0.00 | 1.70 | 1.70 | 89 | 1011.1 |
| 20260507144927 | 21 | 265 | 1.6 | 6.4 | 0.00 | 1.70 | 1.70 | 89 | 1010.9 |
| 20260507144424 | 21 | 267 | 0.0 | 3.2 | 0.00 | 1.70 | 1.70 | 90 | 1011.0 |
| 20260507143921 | 21 | 239 | 0.0 | 1.6 | 0.00 | 1.70 | 1.70 | 89 | 1011.0 |
| 20260507143418 | 22 | 261 | 6.4 | 6.4 | 0.00 | 1.70 | 1.70 | 88 | 1010.9 |
| 20260507142914 | 22 | 339 | 1.6 | 3.2 | 0.00 | 1.70 | 1.70 | 89 | 1010.8 |
| 20260507142410 | 21 | 225 | 1.6 | 3.2 | 0.00 | 1.70 | 1.70 | 89 | 1010.9 |
| 20260507141908 | 21 | 103 | 1.6 | 3.2 | 0.00 | 1.70 | 1.70 | 90 | 1010.7 |
| 20260507141404 | 21 | 275 | 3.2 | 4.8 | 0.00 | 1.70 | 1.70 | 90 | 1010.8 |
| 20260507140900 | 21 | 249 | 3.2 | 3.2 | 0.00 | 1.70 | 1.70 | 90 | 1010.9 |
| 20260507140357 | 21 | 249 | 3.2 | 6.4 | 0.00 | 1.70 | 1.70 | 90 | 1010.9 |
| 20260507135855 | 21 | 269 | 8.0 | 9.7 | 0.00 | 1.70 | 1.70 | 91 | 1010.8 |
| 20260507135351 | 21 | 256 | 3.2 | 3.2 | 0.00 | 1.70 | 1.70 | 91 | 1010.7 |
| 20260507134849 | 21 | 274 | 3.2 | 3.2 | 0.00 | 1.70 | 1.70 | 91 | 1010.5 |
| 20260507134345 | 21 | 321 | 3.2 | 6.4 | 0.00 | 1.70 | 1.70 | 92 | 1010.7 |
| 20260507133841 | 21 | 266 | 1.6 | 4.8 | 0.00 | 1.70 | 1.70 | 92 | 1010.5 |
| 20260507133337 | 21 | 341 | 1.6 | 1.6 | 0.00 | 1.70 | 1.70 | 92 | 1010.3 |
| 20260507132836 | 21 | 246 | 1.6 | 3.2 | 0.00 | 1.70 | 1.70 | 92 | 1010.6 |
| 20260507132331 | 20 | 71 | 1.6 | 3.2 | 0.00 | 1.70 | 1.70 | 93 | 1010.6 |
| 20260507131829 | 20 | 216 | 0.0 | 3.2 | 0.00 | 1.70 | 1.70 | 93 | 1010.7 |
| 20260507131325 | 20 | 205 | 0.0 | 3.2 | 0.00 | 1.70 | 1.70 | 93 | 1010.9 |
| 20260507130822 | 20 | 147 | 3.2 | 3.2 | 0.00 | 1.70 | 1.70 | 93 | 1010.9 |
| 20260507130319 | 20 | 306 | 1.6 | 6.4 | 0.00 | 1.70 | 1.70 | 93 | 1011.1 |
| 20260507125819 | 20 | 63 | 0.0 | 3.2 | 0.00 | 1.70 | 1.70 | 93 | 1011.1 |
| 20260507125316 | 20 | 357 | 1.6 | 6.4 | 0.00 | 1.70 | 1.70 | 93 | 1011.0 |
| 20260507124813 | 20 | 14 | 3.2 | 4.8 | 0.00 | 1.70 | 1.70 | 94 | 1011.2 |
| 20260507124309 | 20 | 238 | 3.2 | 3.2 | 0.00 | 1.70 | 1.70 | 94 | 1011.3 |
| 20260507123808 | 20 | 179 | 4.8 | 6.4 | 0.00 | 1.70 | 1.70 | 94 | 1011.2 |
| 20260507123305 | 20 | 297 | 1.6 | 4.8 | 0.00 | 1.70 | 1.70 | 94 | 1011.4 |
| 20260507122800 | 20 | 151 | 0.0 | 4.8 | 0.00 | 1.70 | 1.70 | 95 | 1011.4 |
| 20260507122256 | 20 | 269 | 0.0 | 3.2 | 0.00 | 1.70 | 1.70 | 94 | 1011.9 |
| 20260507121752 | 20 | 116 | 1.6 | 3.2 | 0.00 | 1.70 | 1.70 | 95 | 1012.0 |
| 20260507121248 | 20 | 260 | 3.2 | 4.8 | 0.00 | 1.70 | 1.70 | 95 | 1012.1 |
| 20260507120744 | 20 | 234 | 4.8 | 16.1 | 0.00 | 1.70 | 1.70 | 95 | 1012.1 |
| 20260507120241 | 20 | 270 | 1.6 | 3.2 | 0.00 | 1.70 | 1.70 | 95 | 1011.9 |
| 20260507115737 | 20 | 212 | 1.6 | 4.8 | 0.00 | 1.70 | 1.70 | 95 | 1012.0 |
| 20260507115233 | 20 | 281 | 1.6 | 3.2 | 0.00 | 1.70 | 1.70 | 95 | 1012.1 |
| 20260507114729 | 20 | 113 | 1.6 | 1.6 | 0.18 | 1.70 | 1.70 | 96 | 1012.0 |
| 20260507114227 | 20 | 112 | 0.0 | 3.2 | 0.18 | 1.70 | 1.70 | 96 | 1012.1 |
| 20260507113724 | 20 | 87 | 1.6 | 3.2 | 0.00 | 1.68 | 1.68 | 96 | 1012.1 |
| 20260507113221 | 20 | 292 | 1.6 | 1.6 | 0.13 | 1.68 | 1.68 | 96 | 1011.9 |
| 20260507112718 | 20 | 257 | 1.6 | 6.4 | 0.00 | 1.65 | 1.65 | 96 | 1012.0 |
| 20260507112215 | 20 | 232 | 1.6 | 4.8 | 0.18 | 1.65 | 1.65 | 96 | 1011.2 |
| 20260507111713 | 19 | 183 | 0.0 | 4.8 | 0.36 | 1.65 | 1.65 | 96 | 1011.6 |
| 20260507111209 | 19 | 176 | 3.2 | 3.2 | 0.30 | 1.63 | 1.63 | 96 | 1011.8 |
| 20260507110705 | 19 | 231 | 0.0 | 1.6 | 0.43 | 1.60 | 1.60 | 96 | 1012.0 |
| 20260507110202 | 19 | 182 | 0.0 | 1.6 | 0.30 | 1.55 | 1.55 | 96 | 1011.9 |
| 20260507105659 | 19 | 191 | 0.0 | 0.0 | 0.30 | 1.52 | 1.52 | 96 | 1012.0 |
| 20260507105155 | 19 | 233 | 0.0 | 0.0 | 0.13 | 1.50 | 1.50 | 96 | 1011.8 |
| 20260507104652 | 19 | 75 | 1.6 | 3.2 | 0.18 | 1.47 | 1.47 | 96 | 1012.0 |
| 20260507104148 | 19 | 226 | 1.6 | 1.6 | 0.18 | 1.47 | 1.47 | 96 | 1011.7 |
| 20260507103644 | 19 | 204 | 0.0 | 1.6 | 0.00 | 1.45 | 1.45 | 96 | 1011.7 |
| 20260507103141 | 19 | 79 | 1.6 | 3.2 | 0.00 | 1.45 | 1.45 | 96 | 1011.4 |
| 20260507102638 | 19 | 266 | 1.6 | 1.6 | 0.13 | 1.45 | 1.45 | 96 | 1011.5 |
| 20260507102134 | 19 | 214 | 1.6 | 1.6 | 0.13 | 1.45 | 1.45 | 96 | 1011.3 |
| 20260507101630 | 19 | 311 | 1.6 | 4.8 | 0.18 | 1.42 | 1.42 | 96 | 1011.7 |
| 20260507101126 | 19 | 231 | 0.0 | 1.6 | 0.18 | 1.42 | 1.42 | 96 | 1011.5 |
| 20260507100624 | 19 | 96 | 1.6 | 3.2 | 0.13 | 1.40 | 1.40 | 96 | 1011.5 |